Time,TemperatureF,DewpointF,PressureIn,WindDirection,WindDirectionDegrees,WindSpeedMPH,WindSpeedGustMPH,Humidity,HourlyPrecipIn,Conditions,Clouds,dailyrainin,SoftwareType,DateUTC
2013-01-20 00:04:00,26.6,18.5,27.34,South,180,1.1,0.0,71,0.00,RA,,0.00,WeatherDisplay:10.37,2013-01-20 06:04:00,
2013-01-20 00:09:00,26.2,18.4,27.34,NE,45,0.0,0.0,72,0.00,RA,,0.00,WeatherDisplay:10.37,2013-01-20 06:09:00,
2013-01-20 00:14:00,26.2,18.4,27.34,NE,45,0.0,0.0,72,0.00,CLR,,0.00,WeatherDisplay:10.37,2013-01-20 06:14:00,
2013-01-20 00:19:00,26.1,18.3,27.34,East,90,0.0,0.0,72,0.00,CLR,,0.00,WeatherDisplay:10.37,2013-01-20 06:19:00,
2013-01-20 00:24:00,25.9,18.1,27.33,East,90,0.0,0.0,72,0.00,CLR,,0.00,WeatherDisplay:10.37,2013-01-20 06:24:00,
2013-01-20 00:29:00,25.9,18.1,27.34,East,90,0.0,0.0,72,0.00,CLR,,0.00,WeatherDisplay:10.37,2013-01-20 06:29:00,
2013-01-20 00:34:00,25.9,18.1,27.34,East,90,0.0,0.0,72,0.00,CLR,,0.00,WeatherDisplay:10.37,2013-01-20 06:34:00,
2013-01-20 00:39:00,25.7,17.9,27.33,East,90,0.0,0.0,72,0.00,CLR,,0.00,WeatherDisplay:10.37,2013-01-20 06:39:00,
2013-01-20 00:44:00,25.5,17.7,27.33,East,90,0.0,0.0,72,0.00,CLR,,0.00,WeatherDisplay:10.37,2013-01-20 06:44:00,
2013-01-20 00:49:00,25.5,18.1,27.33,East,90,0.0,0.0,73,0.00,CLR,,0.00,WeatherDisplay:10.37,2013-01-20 06:49:00,
2013-01-20 00:54:00,25.3,17.9,27.34,East,90,0.0,0.0,73,0.00,CLR,,0.00,WeatherDisplay:10.37,2013-01-20 06:54:00,
2013-01-20 00:59:00,25.3,17.9,27.34,North,0,0.0,0.0,73,0.00,CLR,,0.00,WeatherDisplay:10.37,2013-01-20 06:59:00,
2013-01-20 01:04:00,25.2,17.7,27.34,North,0,0.0,0.0,73,0.00,CLR,,0.00,WeatherDisplay:10.37,2013-01-20 07:04:00,
2013-01-20 01:09:00,25.2,17.7,27.34,North,0,0.0,0.0,73,0.00,CLR,,0.00,WeatherDisplay:10.37,2013-01-20 07:09:00,
2013-01-20 01:14:00,25.2,17.7,27.34,SE,135,0.0,0.0,73,0.00,CLR,,0.00,WeatherDisplay:10.37,2013-01-20 07:14:00,
2013-01-20 01:19:00,25.0,17.5,27.34,North,0,1.1,0.0,73,0.00,CLR,,0.00,WeatherDisplay:10.37,2013-01-20 07:19:00,
2013-01-20 01:24:00,24.8,17.4,27.34,North,0,0.0,0.0,73,0.00,CLR,,0.00,WeatherDisplay:10.37,2013-01-20 07:24:00,
2013-01-20 01:29:00,24.8,17.4,27.34,North,0,0.0,0.0,73,0.00,CLR,,0.00,WeatherDisplay:10.37,2013-01-20 07:29:00,
2013-01-20 01:34:00,24.8,17.7,27.34,North,0,0.0,0.0,74,0.00,CLR,,0.00,WeatherDisplay:10.37,2013-01-20 07:34:00,
2013-01-20 01:39:00,24.8,17.7,27.33,SW,225,0.0,0.0,74,0.00,CLR,,0.00,WeatherDisplay:10.37,2013-01-20 07:39:00,
2013-01-20 01:44:00,24.6,17.8,27.33,SW,225,0.0,0.0,75,0.00,CLR,,0.00,WeatherDisplay:10.37,2013-01-20 07:44:00,
2013-01-20 01:49:00,24.6,17.8,27.33,SW,225,0.0,0.0,75,0.00,CLR,,0.00,WeatherDisplay:10.37,2013-01-20 07:49:00,
2013-01-20 01:54:00,24.4,17.6,27.33,SW,225,0.0,0.0,75,0.00,CLR,,0.00,WeatherDisplay:10.37,2013-01-20 07:54:00,
2013-01-20 01:59:00,24.4,17.6,27.33,SW,225,0.0,0.0,75,0.00,CLR,,0.00,WeatherDisplay:10.37,2013-01-20 07:59:00,
2013-01-20 02:04:00,24.4,17.6,27.33,SW,225,0.0,0.0,75,0.00,CLR,,0.00,WeatherDisplay:10.37,2013-01-20 08:04:00,
2013-01-20 02:09:00,24.1,17.3,27.33,SE,135,1.1,0.0,75,0.00,CLR,,0.00,WeatherDisplay:10.37,2013-01-20 08:09:00,
2013-01-20 02:14:00,23.9,17.1,27.33,SE,135,0.0,0.0,75,0.00,CLR,,0.00,WeatherDisplay:10.37,2013-01-20 08:14:00,
2013-01-20 02:19:00,23.9,17.1,27.33,NW,315,0.0,0.0,75,0.00,CLR,,0.00,WeatherDisplay:10.37,2013-01-20 08:19:00,
2013-01-20 02:24:00,23.7,17.0,27.33,NW,315,0.0,0.0,75,0.00,CLR,,0.00,WeatherDisplay:10.37,2013-01-20 08:24:00,
2013-01-20 02:29:00,23.7,17.0,27.33,NW,315,0.0,0.0,75,0.00,CLR,,0.00,WeatherDisplay:10.37,2013-01-20 08:29:00,
2013-01-20 02:34:00,23.7,17.0,27.33,NW,315,0.0,0.0,75,0.00,CLR,,0.00,WeatherDisplay:10.37,2013-01-20 08:34:00,
2013-01-20 02:39:00,23.7,17.0,27.33,South,180,0.0,0.0,75,0.00,CLR,,0.00,WeatherDisplay:10.37,2013-01-20 08:39:00,
2013-01-20 02:44:00,23.7,17.0,27.33,South,180,1.1,0.0,75,0.00,CLR,,0.00,WeatherDisplay:10.37,2013-01-20 08:44:00,
2013-01-20 02:49:00,23.5,16.8,27.33,South,180,0.0,0.0,75,0.00,CLR,,0.00,WeatherDisplay:10.37,2013-01-20 08:49:00,
2013-01-20 02:54:00,23.4,16.6,27.33,North,0,0.0,0.0,75,0.00,CLR,,0.00,WeatherDisplay:10.37,2013-01-20 08:54:00,
2013-01-20 02:59:00,23.4,16.6,27.32,SE,135,1.1,0.0,75,0.00,CLR,,0.00,WeatherDisplay:10.37,2013-01-20 08:59:00,
2013-01-20 03:04:00,23.2,16.4,27.32,South,180,3.5,3.5,75,0.00,CLR,,0.00,WeatherDisplay:10.37,2013-01-20 09:04:00,
2013-01-20 03:09:00,23.2,16.4,27.31,SE,135,1.1,0.0,75,0.00,CLR,,0.00,WeatherDisplay:10.37,2013-01-20 09:09:00,
2013-01-20 03:14:00,23.0,16.3,27.32,North,0,1.1,1.1,75,0.00,CLR,,0.00,WeatherDisplay:10.37,2013-01-20 09:14:00,
2013-01-20 03:19:00,22.8,16.4,27.32,NW,315,1.1,0.0,76,0.00,CLR,,0.00,WeatherDisplay:10.37,2013-01-20 09:19:00,
2013-01-20 03:24:00,22.8,16.7,27.31,South,180,1.1,1.1,77,0.00,CLR,,0.00,WeatherDisplay:10.37,2013-01-20 09:24:00,
2013-01-20 03:29:00,22.8,16.7,27.31,SE,135,2.3,0.0,77,0.00,CLR,,0.00,WeatherDisplay:10.37,2013-01-20 09:29:00,
2013-01-20 03:34:00,22.8,16.7,27.31,SE,135,1.1,0.0,77,0.00,CLR,,0.00,WeatherDisplay:10.37,2013-01-20 09:34:00,
2013-01-20 03:39:00,22.6,16.5,27.31,NE,45,0.0,0.0,77,0.00,CLR,,0.00,WeatherDisplay:10.37,2013-01-20 09:39:00,
2013-01-20 03:44:00,22.6,16.5,27.31,NW,315,0.0,0.0,77,0.00,CLR,,0.00,WeatherDisplay:10.37,2013-01-20 09:44:00,
2013-01-20 03:49:00,22.6,16.8,27.31,North,0,0.0,0.0,78,0.00,CLR,,0.00,WeatherDisplay:10.37,2013-01-20 09:49:00,
2013-01-20 03:54:00,22.6,16.8,27.31,East,90,2.3,0.0,78,0.00,CLR,,0.00,WeatherDisplay:10.37,2013-01-20 09:54:00,
2013-01-20 03:59:00,22.5,16.6,27.31,South,180,1.1,0.0,78,0.00,CLR,,0.00,WeatherDisplay:10.37,2013-01-20 09:59:00,
2013-01-20 04:04:00,22.5,16.6,27.31,South,180,0.0,0.0,78,0.00,CLR,,0.00,WeatherDisplay:10.37,2013-01-20 10:04:00,
2013-01-20 04:09:00,22.5,16.6,27.31,South,180,0.0,0.0,78,0.00,CLR,,0.00,WeatherDisplay:10.37,2013-01-20 10:09:00,
2013-01-20 04:14:00,22.5,16.6,27.30,South,180,1.1,0.0,78,0.00,CLR,,0.00,WeatherDisplay:10.37,2013-01-20 10:14:00,
2013-01-20 04:19:00,22.3,16.5,27.30,SE,135,0.0,0.0,78,0.00,CLR,,0.00,WeatherDisplay:10.37,2013-01-20 10:19:00,
2013-01-20 04:24:00,22.1,16.3,27.30,SE,135,0.0,0.0,78,0.00,CLR,,0.00,WeatherDisplay:10.37,2013-01-20 10:24:00,
2013-01-20 04:29:00,22.1,16.3,27.30,NE,45,0.0,0.0,78,0.00,CLR,,0.00,WeatherDisplay:10.37,2013-01-20 10:29:00,
2013-01-20 04:34:00,22.1,16.3,27.30,NE,45,0.0,0.0,78,0.00,CLR,,0.00,WeatherDisplay:10.37,2013-01-20 10:34:00,
2013-01-20 04:39:00,21.9,16.1,27.29,NE,45,0.0,0.0,78,0.00,CLR,,0.00,WeatherDisplay:10.37,2013-01-20 10:39:00,
2013-01-20 04:44:00,21.9,16.1,27.30,NE,45,0.0,0.0,78,0.00,CLR,,0.00,WeatherDisplay:10.37,2013-01-20 10:44:00,
2013-01-20 04:49:00,21.9,16.1,27.29,NW,315,0.0,0.0,78,0.00,CLR,,0.00,WeatherDisplay:10.37,2013-01-20 10:49:00,
2013-01-20 04:54:00,21.9,16.1,27.29,NW,315,0.0,0.0,78,0.00,CLR,,0.00,WeatherDisplay:10.37,2013-01-20 10:54:00,
2013-01-20 04:59:00,22.1,16.3,27.30,NW,315,0.0,0.0,78,0.00,CLR,,0.00,WeatherDisplay:10.37,2013-01-20 10:59:00,
2013-01-20 05:04:00,21.9,16.4,27.29,NW,315,0.0,0.0,79,0.00,CLR,,0.00,WeatherDisplay:10.37,2013-01-20 11:04:00,
2013-01-20 05:09:00,21.9,16.4,27.29,NW,315,0.0,0.0,79,0.00,CLR,,0.00,WeatherDisplay:10.37,2013-01-20 11:09:00,
2013-01-20 05:14:00,21.7,15.9,27.29,NW,315,1.1,0.0,78,0.00,CLR,,0.00,WeatherDisplay:10.37,2013-01-20 11:14:00,
2013-01-20 05:19:00,21.7,15.9,27.29,NW,315,0.0,0.0,78,0.00,CLR,,0.00,WeatherDisplay:10.37,2013-01-20 11:19:00,
2013-01-20 05:25:00,21.6,15.8,27.28,NW,315,1.1,1.1,78,0.00,CLR,,0.00,WeatherDisplay:10.37,2013-01-20 11:25:00,
2013-01-20 05:30:00,21.7,16.2,27.27,SE,135,3.5,3.5,79,0.00,CLR,,0.00,WeatherDisplay:10.37,2013-01-20 11:30:00,
2013-01-20 05:35:00,21.7,16.2,27.27,South,180,3.5,3.5,79,0.00,CLR,,0.00,WeatherDisplay:10.37,2013-01-20 11:35:00,
2013-01-20 05:40:00,21.7,16.2,27.27,South,180,1.1,0.0,79,0.00,CLR,,0.00,WeatherDisplay:10.37,2013-01-20 11:40:00,
2013-01-20 05:45:00,21.6,16.1,27.27,North,0,0.0,0.0,79,0.00,CLR,,0.00,WeatherDisplay:10.37,2013-01-20 11:45:00,
2013-01-20 05:50:00,21.6,16.1,27.27,North,0,1.1,1.1,79,0.00,CLR,,0.00,WeatherDisplay:10.37,2013-01-20 11:50:00,
2013-01-20 05:55:00,21.6,16.1,27.27,NW,315,1.1,1.1,79,0.00,CLR,,0.00,WeatherDisplay:10.37,2013-01-20 11:55:00,
2013-01-20 06:00:00,21.6,16.1,27.27,North,0,1.1,1.1,79,0.00,CLR,,0.00,WeatherDisplay:10.37,2013-01-20 12:00:00,
2013-01-20 06:05:00,21.6,16.3,27.27,South,180,3.5,3.5,80,0.00,CLR,,0.00,WeatherDisplay:10.37,2013-01-20 12:05:00,
2013-01-20 06:10:00,21.6,16.3,27.27,North,0,2.3,2.3,80,0.00,CLR,,0.00,WeatherDisplay:10.37,2013-01-20 12:10:00,
2013-01-20 06:15:00,21.7,16.5,27.28,East,90,0.0,0.0,80,0.00,CLR,,0.00,WeatherDisplay:10.37,2013-01-20 12:15:00,
2013-01-20 06:20:00,21.6,16.3,27.27,South,180,1.1,1.1,80,0.00,CLR,,0.00,WeatherDisplay:10.37,2013-01-20 12:20:00,
2013-01-20 06:25:00,21.4,16.2,27.27,SW,225,1.1,0.0,80,0.00,CLR,,0.00,WeatherDisplay:10.37,2013-01-20 12:25:00,
2013-01-20 06:30:00,21.4,16.2,27.28,NW,315,2.3,2.3,80,0.00,CLR,,0.00,WeatherDisplay:10.37,2013-01-20 12:30:00,
2013-01-20 06:35:00,21.4,16.2,27.28,North,0,1.1,0.0,80,0.00,CLR,,0.00,WeatherDisplay:10.37,2013-01-20 12:35:00,
2013-01-20 06:40:00,21.4,16.5,27.28,South,180,1.1,1.1,81,0.00,CLR,,0.00,WeatherDisplay:10.37,2013-01-20 12:40:00,
2013-01-20 06:45:00,21.2,16.3,27.29,North,0,3.5,3.5,81,0.00,CLR,,0.00,WeatherDisplay:10.37,2013-01-20 12:45:00,
2013-01-20 06:50:00,21.2,16.3,27.29,North,0,3.8,3.8,81,0.00,CLR,,0.00,WeatherDisplay:10.37,2013-01-20 12:50:00,
2013-01-20 06:55:00,21.2,16.3,27.29,North,0,2.3,2.3,81,0.00,CLR,,0.00,WeatherDisplay:10.37,2013-01-20 12:55:00,
2013-01-20 07:00:00,21.2,16.3,27.29,North,0,0.0,0.0,81,0.00,CLR,,0.00,WeatherDisplay:10.37,2013-01-20 13:00:00,
2013-01-20 07:05:00,21.2,16.6,27.29,North,0,1.1,0.0,82,0.00,CLR,,0.00,WeatherDisplay:10.37,2013-01-20 13:05:00,
2013-01-20 07:10:00,21.0,16.7,27.29,North,0,0.0,0.0,83,0.00,CLR,,0.00,WeatherDisplay:10.37,2013-01-20 13:10:00,
2013-01-20 07:15:00,21.2,16.6,27.29,North,0,0.0,0.0,82,0.00,CLR,,0.00,WeatherDisplay:10.37,2013-01-20 13:15:00,
2013-01-20 07:20:00,21.2,16.6,27.29,North,0,0.0,0.0,82,0.00,CLR,,0.00,WeatherDisplay:10.37,2013-01-20 13:20:00,
2013-01-20 07:25:00,21.2,16.6,27.30,North,0,0.0,0.0,82,0.00,CLR,,0.00,WeatherDisplay:10.37,2013-01-20 13:25:00,
2013-01-20 07:30:00,21.2,16.6,27.30,North,0,0.0,0.0,82,0.00,CLR,,0.00,WeatherDisplay:10.37,2013-01-20 13:30:00,
2013-01-20 07:35:00,21.2,16.6,27.30,North,0,0.0,0.0,82,0.00,CLR,,0.00,WeatherDisplay:10.37,2013-01-20 13:35:00,
2013-01-20 07:40:00,21.0,16.7,27.30,North,0,0.0,0.0,83,0.00,CLR,,0.00,WeatherDisplay:10.37,2013-01-20 13:40:00,
2013-01-20 07:45:00,20.8,16.5,27.30,North,0,0.0,0.0,83,0.00,CLR,,0.00,WeatherDisplay:10.37,2013-01-20 13:45:00,
2013-01-20 07:50:00,20.8,16.5,27.30,North,0,1.1,0.0,83,0.00,CLR,,0.00,WeatherDisplay:10.37,2013-01-20 13:50:00,
2013-01-20 07:55:00,21.0,16.7,27.30,North,0,0.0,0.0,83,0.00,CLR,,0.00,WeatherDisplay:10.37,2013-01-20 13:55:00,
2013-01-20 08:00:00,21.0,16.7,27.31,North,0,1.1,0.0,83,0.00,CLR,,0.00,WeatherDisplay:10.37,2013-01-20 14:00:00,
2013-01-20 08:05:00,21.0,16.9,27.31,North,0,0.0,0.0,84,0.00,CLR,,0.00,WeatherDisplay:10.37,2013-01-20 14:05:00,
2013-01-20 08:10:00,21.4,17.0,27.31,North,0,0.0,0.0,83,0.00,CLR,,0.00,WeatherDisplay:10.37,2013-01-20 14:10:00,
2013-01-20 08:15:00,21.4,17.0,27.32,North,0,0.0,0.0,83,0.00,CLR,,0.00,WeatherDisplay:10.37,2013-01-20 14:15:00,
2013-01-20 08:20:00,21.4,17.0,27.32,North,0,1.1,0.0,83,0.00,CLR,,0.00,WeatherDisplay:10.37,2013-01-20 14:20:00,
2013-01-20 08:25:00,21.7,17.7,27.33,North,0,0.0,0.0,84,0.00,CLR,,0.00,WeatherDisplay:10.37,2013-01-20 14:25:00,
2013-01-20 08:30:00,21.9,17.8,27.33,North,0,0.0,0.0,84,0.00,CLR,,0.00,WeatherDisplay:10.37,2013-01-20 14:30:00,
2013-01-20 08:35:00,22.1,18.0,27.33,North,0,0.0,0.0,84,0.00,CLR,,0.00,WeatherDisplay:10.37,2013-01-20 14:35:00,
2013-01-20 08:40:00,22.3,18.2,27.33,North,0,2.3,2.3,84,0.00,CLR,,0.00,WeatherDisplay:10.37,2013-01-20 14:40:00,
2013-01-20 08:45:00,22.5,18.4,27.33,North,0,1.1,0.0,84,0.00,CLR,,0.00,WeatherDisplay:10.37,2013-01-20 14:45:00,
2013-01-20 08:50:00,22.6,18.5,27.33,North,0,1.1,0.0,84,0.00,CLR,,0.00,WeatherDisplay:10.37,2013-01-20 14:50:00,
2013-01-20 08:55:00,22.8,18.7,27.33,North,0,0.0,0.0,84,0.00,CLR,,0.00,WeatherDisplay:10.37,2013-01-20 14:55:00,
2013-01-20 09:00:00,23.0,18.6,27.33,North,0,1.1,0.0,83,0.00,CLR,,0.00,WeatherDisplay:10.37,2013-01-20 15:00:00,
2013-01-20 09:05:00,23.2,18.8,27.33,North,0,0.0,0.0,83,0.00,CLR,,0.00,WeatherDisplay:10.37,2013-01-20 15:05:00,
2013-01-20 09:10:00,23.4,19.0,27.32,North,0,0.0,0.0,83,0.00,CLR,,0.00,WeatherDisplay:10.37,2013-01-20 15:10:00,
2013-01-20 09:15:00,23.7,19.3,27.33,North,0,0.0,0.0,83,0.00,CLR,,0.00,WeatherDisplay:10.37,2013-01-20 15:15:00,
2013-01-20 09:20:00,24.1,19.7,27.33,North,0,0.0,0.0,83,0.00,CLR,,0.00,WeatherDisplay:10.37,2013-01-20 15:20:00,
2013-01-20 09:25:00,24.3,19.8,27.33,North,0,0.0,0.0,83,0.00,CLR,,0.00,WeatherDisplay:10.37,2013-01-20 15:25:00,
2013-01-20 09:30:00,24.4,20.0,27.33,North,0,0.0,0.0,83,0.00,CLR,,0.00,WeatherDisplay:10.37,2013-01-20 15:30:00,
2013-01-20 09:35:00,25.0,20.3,27.33,North,0,1.1,1.6,82,0.00,CLR,,0.00,WeatherDisplay:10.37,2013-01-20 15:35:00,
2013-01-20 09:40:00,25.3,20.6,27.33,North,0,1.1,1.6,82,0.00,CLR,,0.00,WeatherDisplay:10.37,2013-01-20 15:40:00,
2013-01-20 09:45:00,25.7,21.0,27.34,North,0,0.0,0.0,82,0.00,CLR,,0.00,WeatherDisplay:10.37,2013-01-20 15:45:00,
2013-01-20 09:51:00,26.1,21.3,27.33,North,0,0.0,0.0,82,0.00,CLR,,0.00,WeatherDisplay:10.37,2013-01-20 15:51:00,
2013-01-20 09:56:00,26.4,21.7,27.34,SW,225,1.1,0.0,82,0.00,CLR,,0.00,WeatherDisplay:10.37,2013-01-20 15:56:00,
2013-01-20 10:01:00,26.8,21.7,27.34,West,270,0.0,0.0,81,0.00,CLR,,0.00,WeatherDisplay:10.37,2013-01-20 16:01:00,
2013-01-20 10:06:00,26.8,21.7,27.34,West,270,0.0,0.0,81,0.00,CLR,,0.00,WeatherDisplay:10.37,2013-01-20 16:06:00,
2013-01-20 10:11:00,28.0,23.0,27.34,North,0,0.0,0.0,81,0.00,CLR,,0.00,WeatherDisplay:10.37,2013-01-20 16:11:00,
2013-01-20 10:16:00,28.8,24.8,27.34,NW,315,0.0,0.0,85,0.00,CLR,,0.00,WeatherDisplay:10.37,2013-01-20 16:16:00,
2013-01-20 10:21:00,29.7,25.1,27.34,NW,315,1.1,0.0,83,0.00,CLR,,0.00,WeatherDisplay:10.37,2013-01-20 16:21:00,
2013-01-20 10:26:00,30.0,25.5,27.34,NE,45,0.0,0.0,83,0.00,CLR,,0.00,WeatherDisplay:10.37,2013-01-20 16:26:00,
2013-01-20 10:31:00,30.4,25.2,27.34,NE,45,1.1,0.0,81,0.00,CLR,,0.00,WeatherDisplay:10.37,2013-01-20 16:31:00,
2013-01-20 10:36:00,30.0,24.6,27.34,North,0,0.0,0.0,80,0.00,CLR,,0.00,WeatherDisplay:10.37,2013-01-20 16:36:00,
2013-01-20 10:41:00,30.2,24.5,27.34,NW,315,0.0,0.0,79,0.00,CLR,,0.00,WeatherDisplay:10.37,2013-01-20 16:41:00,
2013-01-20 10:46:00,30.7,25.0,27.34,SW,225,2.3,2.3,79,0.00,CLR,,0.00,WeatherDisplay:10.37,2013-01-20 16:46:00,
2013-01-20 10:51:00,31.3,25.5,27.35,North,0,1.1,0.0,79,0.00,CLR,,0.00,WeatherDisplay:10.37,2013-01-20 16:51:00,
2013-01-20 10:56:00,31.1,25.0,27.35,South,180,0.0,0.0,78,0.00,CLR,,0.00,WeatherDisplay:10.37,2013-01-20 16:56:00,
2013-01-20 11:01:00,31.1,24.7,27.34,NW,315,3.5,3.5,77,0.00,CLR,,0.00,WeatherDisplay:10.37,2013-01-20 17:01:00,
2013-01-20 11:06:00,30.7,24.4,27.35,North,0,2.3,0.0,77,0.00,CLR,,0.00,WeatherDisplay:10.37,2013-01-20 17:06:00,
2013-01-20 11:11:00,30.9,24.6,27.35,SW,225,3.5,3.5,77,0.00,CLR,,0.00,WeatherDisplay:10.37,2013-01-20 17:11:00,
2013-01-20 11:16:00,31.1,25.0,27.35,North,0,2.3,2.3,78,0.00,CLR,,0.00,WeatherDisplay:10.37,2013-01-20 17:16:00,
2013-01-20 11:21:00,31.6,25.6,27.34,NW,315,3.5,3.5,78,0.00,CLR,,0.00,WeatherDisplay:10.37,2013-01-20 17:21:00,
2013-01-20 11:30:00,32.5,26.1,27.34,North,0,2.3,0.0,77,0.00,CLR,,0.00,WeatherDisplay:10.37,2013-01-20 17:30:00,
2013-01-20 11:35:00,33.4,26.7,27.35,NW,315,3.5,3.5,76,0.00,CLR,,0.00,WeatherDisplay:10.37,2013-01-20 17:35:00,
2013-01-20 11:40:00,33.6,26.5,27.35,NW,315,3.5,3.5,75,0.00,CLR,,0.00,WeatherDisplay:10.37,2013-01-20 17:40:00,
2013-01-20 11:45:00,34.2,26.7,27.35,NW,315,3.8,3.8,74,0.00,CLR,,0.00,WeatherDisplay:10.37,2013-01-20 17:45:00,
2013-01-20 11:50:00,34.5,27.1,27.35,NW,315,3.5,3.8,74,0.00,CLR,,0.00,WeatherDisplay:10.37,2013-01-20 17:50:00,
2013-01-20 11:55:00,35.1,27.6,27.35,NW,315,3.1,3.1,74,0.00,CLR,,0.00,WeatherDisplay:10.37,2013-01-20 17:55:00,
2013-01-20 12:00:00,35.4,27.6,27.35,NW,315,5.8,5.8,73,0.00,CLR,,0.00,WeatherDisplay:10.37,2013-01-20 18:00:00,
2013-01-20 12:06:00,35.4,27.6,27.35,NW,315,3.5,3.5,73,0.00,CLR,,0.00,WeatherDisplay:10.37,2013-01-20 18:06:00,
2013-01-20 12:11:00,37.2,28.7,27.35,NW,315,5.8,5.8,71,0.00,CLR,,0.00,WeatherDisplay:10.37,2013-01-20 18:11:00,
2013-01-20 12:16:00,38.8,29.9,27.34,NW,315,10.4,10.4,70,0.00,CLR,,0.00,WeatherDisplay:10.37,2013-01-20 18:16:00,
2013-01-20 12:21:00,40.3,29.4,27.34,NW,315,8.1,8.1,65,0.00,CLR,,0.00,WeatherDisplay:10.37,2013-01-20 18:21:00,
2013-01-20 12:26:00,41.2,29.1,27.34,NW,315,15.0,15.0,62,0.00,CLR,,0.00,WeatherDisplay:10.37,2013-01-20 18:26:00,
2013-01-20 12:31:00,41.7,28.8,27.34,North,0,13.8,13.8,60,0.00,CLR,,0.00,WeatherDisplay:10.37,2013-01-20 18:31:00,
2013-01-20 12:36:00,41.9,28.2,27.34,NW,315,18.4,18.4,58,0.00,CLR,,0.00,WeatherDisplay:10.37,2013-01-20 18:36:00,
2013-01-20 12:41:00,42.1,27.5,27.34,NNW,338,13.8,13.8,56,0.00,CLR,,0.00,WeatherDisplay:10.37,2013-01-20 18:41:00,
2013-01-20 12:46:00,42.4,27.0,27.35,North,0,16.1,16.1,54,0.00,CLR,,0.00,WeatherDisplay:10.37,2013-01-20 18:46:00,
2013-01-20 12:51:00,42.6,26.7,27.35,North,0,12.7,12.7,53,0.00,CLR,,0.00,WeatherDisplay:10.37,2013-01-20 18:51:00,
2013-01-20 12:56:00,42.4,26.5,27.34,NW,315,10.4,10.4,53,0.00,CLR,,0.00,WeatherDisplay:10.37,2013-01-20 18:56:00,
2013-01-20 13:01:00,42.4,27.0,27.34,WNW,292,10.4,10.4,54,0.00,CLR,,0.00,WeatherDisplay:10.37,2013-01-20 19:01:00,
2013-01-20 13:06:00,42.3,26.8,27.34,North,0,10.4,10.4,54,0.00,CLR,,0.00,WeatherDisplay:10.37,2013-01-20 19:06:00,
2013-01-20 13:11:00,42.3,26.8,27.34,NW,315,16.1,16.1,54,0.00,CLR,,0.00,WeatherDisplay:10.37,2013-01-20 19:11:00,
2013-01-20 13:16:00,42.4,27.4,27.34,North,0,17.3,17.3,55,0.00,CLR,,0.00,WeatherDisplay:10.37,2013-01-20 19:16:00,
2013-01-20 13:21:00,42.3,26.8,27.34,North,0,17.3,17.3,54,0.00,CLR,,0.00,WeatherDisplay:10.37,2013-01-20 19:21:00,
2013-01-20 13:26:00,42.3,26.8,27.34,NW,315,15.0,15.0,54,0.00,CLR,,0.00,WeatherDisplay:10.37,2013-01-20 19:26:00,
2013-01-20 13:31:00,42.3,27.2,27.34,NW,315,19.6,19.6,55,0.00,CLR,,0.00,WeatherDisplay:10.37,2013-01-20 19:31:00,
2013-01-20 13:36:00,41.9,26.9,27.34,North,0,20.7,20.7,55,0.00,CLR,,0.00,WeatherDisplay:10.37,2013-01-20 19:36:00,
2013-01-20 13:41:00,41.5,26.6,27.34,North,0,23.0,23.0,55,0.00,CLR,,0.00,WeatherDisplay:10.37,2013-01-20 19:41:00,
2013-01-20 13:46:00,41.0,26.9,27.34,North,0,18.4,18.4,57,0.00,CLR,,0.00,WeatherDisplay:10.37,2013-01-20 19:46:00,
2013-01-20 13:51:00,40.6,26.6,27.34,North,0,17.3,17.3,57,0.00,CLR,,0.00,WeatherDisplay:10.37,2013-01-20 19:51:00,
2013-01-20 13:56:00,40.3,25.8,27.35,WNW,292,19.6,19.6,56,0.00,CLR,,0.00,WeatherDisplay:10.37,2013-01-20 19:56:00,
2013-01-20 14:01:00,39.4,24.5,27.35,North,0,13.8,13.8,55,0.00,CLR,,0.00,WeatherDisplay:10.37,2013-01-20 20:01:00,
2013-01-20 14:06:00,39.4,24.5,27.35,North,0,13.8,13.8,55,0.00,CLR,,0.00,WeatherDisplay:10.37,2013-01-20 20:06:00,
2013-01-20 14:11:00,37.2,22.1,27.35,NNW,338,26.5,26.5,54,0.00,CLR,,0.00,WeatherDisplay:10.37,2013-01-20 20:11:00,
2013-01-20 14:16:00,36.5,21.4,27.35,NNW,338,24.2,24.2,54,0.00,CLR,,0.00,WeatherDisplay:10.37,2013-01-20 20:16:00,
2013-01-20 14:21:00,36.5,21.8,27.36,NW,315,19.6,19.6,55,0.00,CLR,,0.00,WeatherDisplay:10.37,2013-01-20 20:21:00,
2013-01-20 14:26:00,36.5,22.3,27.36,NW,315,10.4,10.4,56,0.00,CLR,,0.00,WeatherDisplay:10.37,2013-01-20 20:26:00,
2013-01-20 14:31:00,36.3,22.5,27.36,North,0,21.3,21.3,57,0.00,CLR,,0.00,WeatherDisplay:10.37,2013-01-20 20:31:00,
2013-01-20 14:36:00,36.0,21.8,27.36,NW,315,17.3,17.3,56,0.00,CLR,,0.00,WeatherDisplay:10.37,2013-01-20 20:36:00,
2013-01-20 14:41:00,35.8,22.0,27.37,NW,315,15.0,15.0,57,0.00,CLR,,0.00,WeatherDisplay:10.37,2013-01-20 20:41:00,
2013-01-20 14:46:00,35.6,21.4,27.37,NW,315,11.5,11.5,56,0.00,CLR,,0.00,WeatherDisplay:10.37,2013-01-20 20:46:00,
2013-01-20 14:51:00,35.1,20.9,27.38,North,0,17.3,17.3,56,0.00,CLR,,0.00,WeatherDisplay:10.37,2013-01-20 20:51:00,
2013-01-20 14:57:00,34.9,20.8,27.38,NW,315,12.7,12.7,56,0.00,CLR,,0.00,WeatherDisplay:10.37,2013-01-20 20:57:00,
2013-01-20 15:02:00,34.0,20.3,27.38,North,0,15.0,15.0,57,0.00,CLR,,0.00,WeatherDisplay:10.37,2013-01-20 21:02:00,
2013-01-20 15:07:00,34.0,20.3,27.37,North,0,10.4,10.4,57,0.00,CLR,,0.00,WeatherDisplay:10.37,2013-01-20 21:07:00,
2013-01-20 15:12:00,33.4,20.6,27.38,North,0,12.7,12.7,59,0.00,CLR,,0.00,WeatherDisplay:10.37,2013-01-20 21:12:00,
2013-01-20 15:17:00,33.1,19.9,27.39,NW,315,15.0,15.0,58,0.00,CLR,,0.00,WeatherDisplay:10.37,2013-01-20 21:17:00,
2013-01-20 15:22:00,12.2,4.3,26.96,NW,315,19.6,19.6,70,0.00,CLR,,0.00,WeatherDisplay:10.37,2013-01-20 21:22:00,
2013-01-20 15:27:00,32.4,19.6,27.39,North,0,10.4,10.7,59,0.01,RA,,0.01,WeatherDisplay:10.37,2013-01-20 21:27:00,
2013-01-20 15:32:00,32.2,19.4,27.39,NW,315,10.4,10.4,59,0.01,RA,,0.01,WeatherDisplay:10.37,2013-01-20 21:32:00,
2013-01-20 15:37:00,32.2,19.4,27.39,NNE,12,12.7,12.7,59,0.01,CLR,,0.01,WeatherDisplay:10.37,2013-01-20 21:37:00,
2013-01-20 15:42:00,32.0,18.9,27.39,NW,315,12.7,12.7,58,0.01,CLR,,0.01,WeatherDisplay:10.37,2013-01-20 21:42:00,
2013-01-20 15:47:00,32.0,18.9,27.40,NNW,338,8.1,8.1,58,0.01,CLR,,0.01,WeatherDisplay:10.37,2013-01-20 21:47:00,
2013-01-20 15:53:00,32.0,18.9,27.40,North,0,10.4,10.4,58,0.01,CLR,,0.01,WeatherDisplay:10.37,2013-01-20 21:53:00,
2013-01-20 15:58:00,31.5,18.4,27.40,NW,315,10.4,10.4,58,0.01,CLR,,0.01,WeatherDisplay:10.37,2013-01-20 21:58:00,
2013-01-20 16:03:00,31.3,18.2,27.40,NNW,338,12.7,12.7,58,0.01,CLR,,0.01,WeatherDisplay:10.37,2013-01-20 22:03:00,
2013-01-20 16:08:00,30.6,17.9,27.39,North,0,16.1,16.1,59,0.01,CLR,,0.01,WeatherDisplay:10.37,2013-01-20 22:08:00,
2013-01-20 16:13:00,30.2,17.6,27.38,North,0,11.5,11.5,59,0.01,CLR,,0.01,WeatherDisplay:10.37,2013-01-20 22:13:00,
2013-01-20 16:18:00,30.0,18.2,27.39,North,0,15.0,15.0,61,0.01,CLR,,0.01,WeatherDisplay:10.37,2013-01-20 22:18:00,
2013-01-20 16:23:00,29.5,17.3,27.39,NW,315,16.1,16.1,60,0.00,CLR,,0.01,WeatherDisplay:10.37,2013-01-20 22:23:00,
2013-01-20 16:28:00,29.1,17.0,27.39,NNW,338,17.3,17.3,60,0.00,CLR,,0.01,WeatherDisplay:10.37,2013-01-20 22:28:00,
2013-01-20 16:33:00,28.8,16.6,27.38,WNW,292,15.0,15.0,60,0.00,CLR,,0.01,WeatherDisplay:10.37,2013-01-20 22:33:00,
2013-01-20 16:38:00,28.6,16.4,27.38,WNW,292,10.4,10.4,60,0.00,CLR,,0.01,WeatherDisplay:10.37,2013-01-20 22:38:00,
2013-01-20 16:43:00,28.6,16.8,27.38,North,0,15.0,15.0,61,0.00,CLR,,0.01,WeatherDisplay:10.37,2013-01-20 22:43:00,
2013-01-20 16:48:00,28.4,16.3,27.39,NW,315,16.1,16.1,60,0.00,CLR,,0.01,WeatherDisplay:10.37,2013-01-20 22:48:00,
2013-01-20 16:53:00,28.0,14.8,27.39,North,0,12.7,12.7,57,0.00,CLR,,0.01,WeatherDisplay:10.37,2013-01-20 22:53:00,
2013-01-20 16:58:00,27.7,14.4,27.39,North,0,11.5,11.5,57,0.00,CLR,,0.01,WeatherDisplay:10.37,2013-01-20 22:58:00,
2013-01-20 17:03:00,27.5,14.6,27.39,North,0,10.4,10.4,58,0.00,CLR,,0.01,WeatherDisplay:10.37,2013-01-20 23:03:00,
2013-01-20 17:08:00,27.3,14.5,27.39,NW,315,12.7,12.7,58,0.00,CLR,,0.01,WeatherDisplay:10.37,2013-01-20 23:08:00,
2013-01-20 17:13:00,27.1,14.3,27.38,NW,315,8.1,8.1,58,0.00,CLR,,0.01,WeatherDisplay:10.37,2013-01-20 23:13:00,
2013-01-20 17:18:00,26.8,14.0,27.38,North,0,11.5,11.5,58,0.00,CLR,,0.01,WeatherDisplay:10.37,2013-01-20 23:18:00,
2013-01-20 17:23:00,26.6,14.2,27.38,North,0,6.9,6.9,59,0.00,CLR,,0.01,WeatherDisplay:10.37,2013-01-20 23:23:00,
2013-01-20 17:28:00,26.4,14.4,27.39,NE,45,5.8,5.8,60,0.00,CLR,,0.01,WeatherDisplay:10.37,2013-01-20 23:28:00,
2013-01-20 17:33:00,26.2,14.6,27.40,North,0,4.6,4.6,61,0.00,CLR,,0.01,WeatherDisplay:10.37,2013-01-20 23:33:00,
2013-01-20 17:38:00,26.1,14.4,27.40,NW,315,8.1,8.1,61,0.00,CLR,,0.01,WeatherDisplay:10.37,2013-01-20 23:38:00,
2013-01-20 17:43:00,26.1,14.4,27.40,NNW,338,5.8,6.0,61,0.00,CLR,,0.01,WeatherDisplay:10.37,2013-01-20 23:43:00,
2013-01-20 17:48:00,25.9,14.3,27.40,NW,315,4.6,4.6,61,0.00,CLR,,0.01,WeatherDisplay:10.37,2013-01-20 23:48:00,
2013-01-20 17:53:00,25.5,14.3,27.40,NW,315,4.6,4.6,62,0.00,CLR,,0.01,WeatherDisplay:10.37,2013-01-20 23:53:00,
2013-01-20 17:58:00,25.5,14.3,27.42,North,0,3.5,0.0,62,0.00,CLR,,0.01,WeatherDisplay:10.37,2013-01-20 23:58:00,
2013-01-20 18:03:00,25.3,14.1,27.42,West,270,1.1,0.0,62,0.00,CLR,,0.01,WeatherDisplay:10.37,2013-01-21 00:03:00,
2013-01-20 18:08:00,25.2,14.0,27.42,North,0,2.3,2.3,62,0.00,CLR,,0.01,WeatherDisplay:10.37,2013-01-21 00:08:00,
2013-01-20 18:13:00,25.0,13.8,27.42,NNE,22,2.3,0.0,62,0.00,CLR,,0.01,WeatherDisplay:10.37,2013-01-21 00:13:00,
2013-01-20 18:19:00,24.8,13.6,27.42,North,0,1.1,2.2,62,0.00,CLR,,0.01,WeatherDisplay:10.37,2013-01-21 00:19:00,
2013-01-20 18:24:00,24.8,13.6,27.42,NW,315,2.3,2.3,62,0.00,CLR,,0.01,WeatherDisplay:10.37,2013-01-21 00:24:00,
2013-01-20 18:29:00,24.6,13.8,27.43,North,0,3.5,3.5,63,0.00,CLR,,0.01,WeatherDisplay:10.37,2013-01-21 00:29:00,
2013-01-20 18:34:00,24.4,13.6,27.42,North,0,2.3,2.3,63,0.00,CLR,,0.01,WeatherDisplay:10.37,2013-01-21 00:34:00,
2013-01-20 18:39:00,24.4,13.6,27.42,NW,315,1.1,0.0,63,0.00,CLR,,0.01,WeatherDisplay:10.37,2013-01-21 00:39:00,
2013-01-20 18:44:00,24.3,13.8,27.42,North,0,1.1,0.0,64,0.00,CLR,,0.01,WeatherDisplay:10.37,2013-01-21 00:44:00,
2013-01-20 18:49:00,24.1,13.7,27.43,NW,315,3.5,3.5,64,0.00,CLR,,0.01,WeatherDisplay:10.37,2013-01-21 00:49:00,
2013-01-20 18:54:00,24.1,13.7,27.43,North,0,1.1,1.1,64,0.00,CLR,,0.01,WeatherDisplay:10.37,2013-01-21 00:54:00,
2013-01-20 18:59:00,23.9,13.5,27.42,North,0,0.0,0.0,64,0.00,CLR,,0.01,WeatherDisplay:10.37,2013-01-21 00:59:00,
2013-01-20 19:04:00,23.7,13.3,27.42,SE,135,0.0,0.0,64,0.00,CLR,,0.01,WeatherDisplay:10.37,2013-01-21 01:04:00,
2013-01-20 19:09:00,23.5,13.1,27.43,SW,225,0.0,0.0,64,0.00,CLR,,0.01,WeatherDisplay:10.37,2013-01-21 01:09:00,
2013-01-20 19:14:00,23.5,13.1,27.42,NW,315,0.0,0.0,64,0.00,CLR,,0.01,WeatherDisplay:10.37,2013-01-21 01:14:00,
2013-01-20 19:19:00,23.4,13.0,27.43,NW,315,0.0,0.0,64,0.00,CLR,,0.01,WeatherDisplay:10.37,2013-01-21 01:19:00,
2013-01-20 19:24:00,23.2,12.8,27.43,NW,315,0.0,0.0,64,0.00,CLR,,0.01,WeatherDisplay:10.37,2013-01-21 01:24:00,
2013-01-20 19:29:00,23.2,12.8,27.44,NW,315,0.0,0.0,64,0.00,CLR,,0.01,WeatherDisplay:10.37,2013-01-21 01:29:00,
2013-01-20 19:34:00,23.0,12.6,27.44,SW,225,0.0,0.0,64,0.00,CLR,,0.01,WeatherDisplay:10.37,2013-01-21 01:34:00,
2013-01-20 19:39:00,23.0,13.0,27.45,NW,315,0.0,0.0,65,0.00,CLR,,0.01,WeatherDisplay:10.37,2013-01-21 01:39:00,
2013-01-20 19:45:00,23.0,13.0,27.45,NW,315,0.0,0.0,65,0.00,CLR,,0.01,WeatherDisplay:10.37,2013-01-21 01:45:00,
2013-01-20 19:50:00,23.0,13.0,27.44,NW,315,0.0,0.0,65,0.00,CLR,,0.01,WeatherDisplay:10.37,2013-01-21 01:50:00,
2013-01-20 19:55:00,23.0,13.0,27.45,South,180,1.1,0.0,65,0.00,CLR,,0.01,WeatherDisplay:10.37,2013-01-21 01:55:00,
2013-01-20 20:00:00,23.0,13.3,27.45,South,180,0.0,0.0,66,0.00,CLR,,0.01,WeatherDisplay:10.37,2013-01-21 02:00:00,
2013-01-20 20:05:00,23.0,13.3,27.44,South,180,0.0,0.0,66,0.00,CLR,,0.01,WeatherDisplay:10.37,2013-01-21 02:05:00,
2013-01-20 20:10:00,23.2,13.5,27.45,South,180,0.0,0.0,66,0.00,CLR,,0.01,WeatherDisplay:10.37,2013-01-21 02:10:00,
2013-01-20 20:15:00,23.2,13.8,27.44,South,180,1.1,1.1,67,0.00,CLR,,0.01,WeatherDisplay:10.37,2013-01-21 02:15:00,
2013-01-20 20:20:00,23.2,13.8,27.45,South,180,0.0,0.0,67,0.00,CLR,,0.01,WeatherDisplay:10.37,2013-01-21 02:20:00,
2013-01-20 20:25:00,23.0,13.7,27.45,North,0,0.0,0.0,67,0.00,CLR,,0.01,WeatherDisplay:10.37,2013-01-21 02:25:00,
2013-01-20 20:30:00,22.8,13.8,27.45,North,0,0.0,0.0,68,0.00,CLR,,0.01,WeatherDisplay:10.37,2013-01-21 02:30:00,
2013-01-20 20:35:00,22.6,13.7,27.45,North,0,0.0,0.0,68,0.00,CLR,,0.01,WeatherDisplay:10.37,2013-01-21 02:35:00,
2013-01-20 20:40:00,22.6,13.7,27.46,North,0,0.0,0.0,68,0.00,CLR,,0.01,WeatherDisplay:10.37,2013-01-21 02:40:00,
2013-01-20 20:45:00,22.5,13.5,27.46,South,180,0.0,0.0,68,0.00,CLR,,0.01,WeatherDisplay:10.37,2013-01-21 02:45:00,
2013-01-20 20:50:00,22.3,13.3,27.45,North,0,0.0,0.0,68,0.00,CLR,,0.01,WeatherDisplay:10.37,2013-01-21 02:50:00,
2013-01-20 20:55:00,21.9,13.0,27.46,NE,45,0.0,0.0,68,0.00,CLR,,0.01,WeatherDisplay:10.37,2013-01-21 02:55:00,
2013-01-20 21:00:00,21.9,13.3,27.47,NE,45,0.0,0.0,69,0.00,CLR,,0.01,WeatherDisplay:10.37,2013-01-21 03:00:00,
2013-01-20 21:05:00,21.7,13.1,27.46,NE,45,0.0,0.0,69,0.00,CLR,,0.01,WeatherDisplay:10.37,2013-01-21 03:05:00,
2013-01-20 21:10:00,21.6,13.0,27.46,NW,315,0.0,0.0,69,0.00,CLR,,0.01,WeatherDisplay:10.37,2013-01-21 03:10:00,
2013-01-20 21:15:00,21.4,12.8,27.46,NE,45,0.0,0.0,69,0.00,CLR,,0.01,WeatherDisplay:10.37,2013-01-21 03:15:00,
2013-01-20 21:20:00,21.4,12.8,27.46,NE,45,0.0,0.0,69,0.00,CLR,,0.01,WeatherDisplay:10.37,2013-01-21 03:20:00,
2013-01-20 21:25:00,21.2,12.6,27.46,NW,315,0.0,0.0,69,0.00,CLR,,0.01,WeatherDisplay:10.37,2013-01-21 03:25:00,
2013-01-20 21:30:00,21.0,13.1,27.45,North,0,1.1,0.0,71,0.00,CLR,,0.01,WeatherDisplay:10.37,2013-01-21 03:30:00,
2013-01-20 21:35:00,21.0,13.1,27.46,North,0,0.0,0.0,71,0.00,CLR,,0.01,WeatherDisplay:10.37,2013-01-21 03:35:00,
2013-01-20 21:40:00,20.8,12.9,27.46,NW,315,0.0,0.0,71,0.00,CLR,,0.01,WeatherDisplay:10.37,2013-01-21 03:40:00,
2013-01-20 21:45:00,20.8,12.9,27.46,NW,315,0.0,0.0,71,0.00,CLR,,0.01,WeatherDisplay:10.37,2013-01-21 03:45:00,
2013-01-20 21:50:00,20.7,12.7,27.45,South,180,0.0,0.0,71,0.00,CLR,,0.01,WeatherDisplay:10.37,2013-01-21 03:50:00,
2013-01-20 21:55:00,20.5,12.6,27.46,WNW,292,1.1,0.0,71,0.00,CLR,,0.01,WeatherDisplay:10.37,2013-01-21 03:55:00,
2013-01-20 22:00:00,20.5,12.9,27.45,North,0,0.0,0.0,72,0.00,CLR,,0.01,WeatherDisplay:10.37,2013-01-21 04:00:00,
2013-01-20 22:05:00,20.5,12.9,27.46,North,0,0.0,0.0,72,0.00,CLR,,0.01,WeatherDisplay:10.37,2013-01-21 04:05:00,
2013-01-20 22:10:00,20.1,12.5,27.45,North,0,0.0,0.0,72,0.00,CLR,,0.01,WeatherDisplay:10.37,2013-01-21 04:10:00,
2013-01-20 22:15:00,20.1,12.5,27.45,SW,225,1.1,0.0,72,0.00,CLR,,0.01,WeatherDisplay:10.37,2013-01-21 04:15:00,
2013-01-20 22:20:00,19.9,12.7,27.45,North,0,1.1,0.0,73,0.00,CLR,,0.01,WeatherDisplay:10.37,2013-01-21 04:20:00,
2013-01-20 22:25:00,19.8,12.5,27.45,North,0,0.0,0.0,73,0.00,CLR,,0.01,WeatherDisplay:10.37,2013-01-21 04:25:00,
2013-01-20 22:30:00,19.8,12.5,27.46,NW,315,0.0,0.0,73,0.00,CLR,,0.01,WeatherDisplay:10.37,2013-01-21 04:30:00,
2013-01-20 22:35:00,19.6,12.3,27.46,North,0,0.0,0.0,73,0.00,CLR,,0.01,WeatherDisplay:10.37,2013-01-21 04:35:00,
2013-01-20 22:40:00,19.6,12.6,27.46,North,0,0.0,0.0,74,0.00,CLR,,0.01,WeatherDisplay:10.37,2013-01-21 04:40:00,
2013-01-20 22:45:00,19.6,12.3,27.46,North,0,0.0,0.0,73,0.00,CLR,,0.01,WeatherDisplay:10.37,2013-01-21 04:45:00,
2013-01-20 22:50:00,19.4,12.2,27.45,North,0,0.0,0.0,73,0.00,CLR,,0.01,WeatherDisplay:10.37,2013-01-21 04:50:00,
2013-01-20 22:55:00,19.2,10.7,27.45,North,0,0.0,0.0,69,0.00,CLR,,0.01,WeatherDisplay:10.37,2013-01-21 04:55:00,
2013-01-20 23:00:00,19.0,10.5,27.46,North,0,0.0,0.0,69,0.00,CLR,,0.01,WeatherDisplay:10.37,2013-01-21 05:00:00,
2013-01-20 23:02:00,19.0,10.5,27.45,North,0,0.0,0.0,69,0.00,CLR,,0.01,WeatherDisplay:10.37,2013-01-21 05:02:00,
2013-01-20 23:03:00,19.0,10.5,27.45,North,0,0.0,0.0,69,0.00,CLR,,0.01,WeatherDisplay:10.37,2013-01-21 05:03:00,
2013-01-20 23:08:00,18.9,10.4,27.45,North,0,0.0,0.0,69,0.00,CLR,,0.01,WeatherDisplay:10.37,2013-01-21 05:08:00,
2013-01-20 23:13:00,18.9,10.7,27.45,SE,135,0.0,0.0,70,0.00,CLR,,0.01,WeatherDisplay:10.37,2013-01-21 05:13:00,
2013-01-20 23:18:00,18.7,10.5,27.44,SE,135,0.0,0.0,70,0.00,CLR,,0.01,WeatherDisplay:10.37,2013-01-21 05:18:00,
2013-01-20 23:23:00,18.5,10.3,27.45,NW,315,0.0,0.0,70,0.00,CLR,,0.01,WeatherDisplay:10.37,2013-01-21 05:23:00,
2013-01-20 23:28:00,18.5,10.3,27.45,South,180,0.0,0.0,70,0.00,CLR,,0.01,WeatherDisplay:10.37,2013-01-21 05:28:00,
2013-01-20 23:33:00,18.3,10.2,27.44,NE,45,0.0,0.0,70,0.00,CLR,,0.01,WeatherDisplay:10.37,2013-01-21 05:33:00,
2013-01-20 23:38:00,18.3,10.2,27.44,NE,45,0.0,0.0,70,0.00,CLR,,0.01,WeatherDisplay:10.37,2013-01-21 05:38:00,
2013-01-20 23:43:00,18.1,10.0,27.44,NE,45,0.0,0.0,70,0.00,CLR,,0.01,WeatherDisplay:10.37,2013-01-21 05:43:00,
2013-01-20 23:48:00,18.1,10.0,27.44,NE,45,0.0,0.0,70,0.00,CLR,,0.01,WeatherDisplay:10.37,2013-01-21 05:48:00,
2013-01-20 23:53:00,18.0,9.8,27.44,NE,45,0.0,0.0,70,0.00,CLR,,0.01,WeatherDisplay:10.37,2013-01-21 05:53:00,
2013-01-20 23:58:00,18.0,9.8,27.43,NE,45,0.0,0.0,70,0.00,CLR,,0.01,WeatherDisplay:10.37,2013-01-21 05:58:00,